1536724801.11,1587,16.75,74770.5,5.85,-15.43,-15.67,0,*48
1536724802.33,1588,16.75,74770.0,5.91,-15.39,-15.67,0,*4F
1536724803.57,1589,16.75,74780.8,5.85,-15.57,-15.75,0,*40
1536724804.78,1590,16.75,74778.0,5.85,-15.49,-15.63,0,*40
1536724806.01,1591,16.75,74778.3,5.85,-15.15,-15.21,0,*4E
1536724807.23,1592,16.75,74776.0,5.85,-15.29,-15.29,0,*4A
1536724808.47,1593,16.75,74782.8,5.85,-15.01,-15.15,0,*4E
1536724809.69,1594,16.75,74780.5,5.85,-15.01,-15.07,0,*4A
1536724810.93,1595,16.75,74782.0,5.85,-14.93,-15.07,0,*41
1536724812.15,1596,16.75,74776.3,5.89,-14.89,-15.11,0,*42
1536724813.37,1597,16.75,74776.8,5.89,-15.11,-15.25,0,*44
1536724814.62,1598,16.75,74774.5,5.89,-15.39,-15.53,0,*40
1536724815.85,1599,16.75,74780.5,5.89,-15.29,-15.53,0,*40
1536724817.08,1600,16.75,74780.3,5.85,-15.01,-15.15,0,*47
1536724818.31,1601,16.75,74782.3,5.85,-15.01,-15.07,0,*45
1536724819.54,1602,16.75,74780.0,5.89,-15.11,-15.29,0,*47
1536724820.79,1603,16.75,74780.5,5.89,-15.25,-15.43,0,*4D
1536724822.04,1604,16.75,74782.3,5.89,-15.25,-15.43,0,*4A
1536724823.29,1605,16.75,74778.5,5.89,-15.39,-15.63,0,*44
1536724824.54,1606,16.75,74778.3,5.91,-15.35,-15.57,0,*45
1536724825.77,1607,16.75,74776.8,5.89,-15.53,-15.75,0,*4D
1536724827.01,1608,16.75,74776.8,5.89,-15.57,-15.75,0,*46
1536724828.24,1609,16.75,74774.8,5.89,-15.53,-15.75,0,*43
1536724829.47,1610,16.75,74774.0,5.91,-15.39,-15.71,0,*4A
1536724830.71,1611,16.75,74774.8,5.85,-15.63,-15.81,0,*4E
1536724831.92,1612,16.75,74772.5,5.85,-15.63,-15.75,0,*46
1536724833.17,1613,16.75,74778.0,5.85,-15.43,-15.49,0,*4A
1536724834.4,1614,16.75,74780.3,5.85,-15.57,-15.67,0,*44
1536724835.65,1615,16.75,74780.3,5.89,-15.43,-15.63,0,*48
1536724836.85,1616,16.75,74778.0,5.85,-15.49,-15.67,0,*49
1536724838.06,1617,16.75,74776.0,5.85,-15.49,-15.63,0,*4C
1536724839.28,1618,16.75,74774.3,5.83,-15.43,-15.63,0,*4F
1536724840.52,1619,16.75,74772.5,5.83,-15.43,-15.57,0,*49
1536724841.76,1620,16.75,74772.3,5.85,-15.43,-15.63,0,*42
1536724843.01,1621,16.75,74774.0,5.89,-15.43,-15.53,0,*4C
1536724844.26,1622,16.75,74776.5,5.89,-15.39,-15.63,0,*41
1536724845.52,1623,16.75,74774.5,5.85,-15.57,-15.81,0,*48
1536724846.77,1624,16.75,74772.3,5.85,-15.35,-15.49,0,*4F
1536724847.95,1625,16.75,74772.3,5.83,-15.49,-15.67,0,*4F
1536724849.17,1626,16.75,74774.5,5.83,-15.43,-15.63,0,*42
1536724850.41,1627,16.75,74774.8,5.83,-15.43,-15.57,0,*44
1536724851.65,1628,16.75,74782.3,5.85,-15.49,-15.81,0,*4C
1536724852.91,1629,16.75,74774.8,5.85,-15.21,-15.43,0,*4D
1536724854.16,1630,16.75,74774.8,5.85,-15.21,-15.35,0,*44
1536724855.41,1631,16.75,74776.0,5.83,-15.35,-15.57,0,*42
1536724856.62,1632,16.75,74776.8,5.83,-15.43,-15.63,0,*47
1536724857.86,1633,16.75,74774.0,5.85,-15.43,-15.63,0,*40
1536724859.13,1634,16.75,74782.0,5.89,-15.39,-15.57,0,*41
1536724860.36,1635,16.75,74774.3,5.83,-15.43,-15.49,0,*48
1536724861.56,1636,16.75,74768.3,5.83,-15.29,-15.49,0,*47
1536724862.8,1637,16.75,74764.5,5.85,-15.29,-15.43,0,*4A
1536724864.01,1638,16.75,74776.5,5.83,-15.35,-15.67,0,*48
1536724865.26,1639,16.75,74776.0,5.83,-15.43,-15.57,0,*4B
1536724866.46,1640,16.75,74772.0,5.83,-15.29,-15.49,0,*46
1536724867.65,1641,16.75,74770.3,5.83,-14.89,-15.15,0,*45
1536724868.85,1642,16.75,74774.3,5.83,-15.29,-15.49,0,*44
1536724870.06,1643,16.75,74768.3,5.83,-15.29,-15.49,0,*45
1536724871.28,1644,16.75,74774.8,5.85,-15.29,-15.49,0,*44
1536724872.52,1645,16.75,74772.8,5.83,-15.35,-15.43,0,*44
1536724873.76,1646,16.75,74772.0,5.83,-15.21,-15.43,0,*42
1536724875.0,1647,16.75,74772.8,5.85,-15.15,-15.35,0,*43
1536724876.26,1648,16.75,74774.3,5.85,-15.43,-15.57,0,*4B
1536724877.46,1649,16.75,74772.5,5.83,-15.15,-15.29,0,*46
1536724878.71,1650,16.75,74772.3,5.85,-15.01,-15.21,0,*45
1536724879.93,1651,16.75,74772.3,5.85,-15.15,-15.29,0,*49
1536724881.17,1652,16.75,74774.0,5.83,-15.21,-15.43,0,*47
1536724882.39,1653,16.75,74772.5,5.83,-15.29,-15.57,0,*4B
1536724883.62,1654,16.75,74772.0,5.83,-15.35,-15.49,0,*4E
1536724884.84,1655,16.75,74776.3,5.83,-15.29,-15.43,0,*48
1536724886.05,1656,16.75,74776.8,5.83,-15.21,-15.49,0,*49
1536724887.3,1657,16.75,74774.0,5.85,-15.29,-15.43,0,*4C
1536724888.51,1658,16.75,74774.3,5.83,-15.43,-15.67,0,*4F
1536724889.73,1659,16.75,74778.0,5.83,-15.43,-15.63,0,*4A
1536724890.99,1660,16.75,74774.5,5.85,-15.35,-15.57,0,*40
1536724892.23,1661,16.75,74772.0,5.83,-15.21,-15.35,0,*46
1536724893.44,1662,16.75,74774.8,5.83,-15.15,-15.35,0,*42
1536724894.66,1663,16.75,74778.8,5.83,-15.29,-15.43,0,*4D
1536724895.89,1664,16.75,74778.8,5.83,-15.35,-15.49,0,*4D
1536724897.1,1665,16.75,74780.5,5.83,-15.35,-15.63,0,*44
1536724898.36,1666,16.75,74778.8,5.85,-15.21,-15.35,0,*47
1536724899.6,1667,16.75,74778.8,5.83,-15.21,-15.43,0,*41
1536724900.81,1668,16.75,74776.0,5.83,-15.01,-15.15,0,*4F
1536724902.07,1669,16.75,74774.3,5.85,-15.35,-15.43,0,*4C
1536724903.29,1670,16.75,74774.5,5.83,-15.29,-15.35,0,*4E
1536724904.51,1671,16.75,74778.3,5.83,-15.29,-15.43,0,*4E
1536724905.74,1672,16.75,74778.5,5.85,-15.43,-15.67,0,*41
1536724906.99,1673,16.75,74776.8,5.83,-15.43,-15.57,0,*45
1536724908.21,1674,16.75,74782.5,5.83,-15.35,-15.49,0,*4C
1536724909.45,1675,16.75,74778.0,5.83,-15.35,-15.57,0,*42
1536724910.7,1676,16.75,74778.8,5.83,-15.35,-15.57,0,*41
1536724911.94,1677,16.75,74778.8,5.85,-15.35,-15.49,0,*49
1536724913.17,1678,16.75,74776.0,5.85,-15.07,-15.21,0,*49
1536724914.4,1679,16.75,74776.5,5.83,-15.35,-15.49,0,*41
1536724915.58,1680,16.75,74776.5,5.83,-15.49,-15.67,0,*40
1536724916.77,1681,16.75,74774.8,5.83,-15.49,-15.63,0,*45
1536724918.02,1682,16.75,74778.0,5.83,-15.43,-15.57,0,*4B
1536724919.23,1683,16.75,74778.0,5.85,-15.49,-15.63,0,*41
1536724920.49,1684,16.75,74774.8,5.85,-15.35,-15.57,0,*4A
1536724921.71,1685,16.75,74778.5,5.83,-15.43,-15.75,0,*4C
1536724922.9,1686,16.75,74782.0,5.83,-15.29,-15.63,0,*44
1536724924.12,1687,16.75,74778.5,5.83,-15.29,-15.43,0,*47
1536724925.37,1688,16.69,74770.8,5.83,-15.43,-15.57,0,*41
1536724926.58,1689,16.75,74774.0,5.81,-15.49,-15.71,0,*4C
1536724927.77,1690,16.75,74772.5,5.83,-15.53,-15.67,0,*4A
1536724928.96,1691,16.75,74778.3,5.79,-15.53,-15.71,0,*49
1536724930.2,1692,16.75,74774.8,5.81,-15.39,-15.63,0,*42
1536724931.44,1693,16.75,74778.0,5.81,-15.39,-15.63,0,*43
1536724932.67,1694,16.75,74768.8,5.81,-15.39,-15.63,0,*44
1536724933.88,1695,16.75,74774.3,5.81,-15.49,-15.67,0,*46
1536724935.12,1696,16.75,74776.0,5.83,-15.35,-15.57,0,*4F
1536724936.34,1697,16.75,74774.8,5.81,-15.49,-15.71,0,*43
1536724937.58,1698,16.75,74776.5,5.81,-15.35,-15.49,0,*4C
1536724938.8,1699,16.75,74776.0,5.81,-15.25,-15.53,0,*47
1536724940.07,1700,16.75,74776.5,5.81,-15.35,-15.39,0,*4B
1536724941.31,1701,16.75,74778.5,5.83,-15.35,-15.57,0,*40
1536724942.5,1702,16.75,74774.3,5.79,-15.07,-15.25,0,*42
1536724943.7,1703,16.75,74778.5,5.79,-15.25,-15.49,0,*49
1536724944.92,1704,16.75,74774.3,5.81,-15.07,-15.25,0,*43
1536724946.13,1705,16.75,74776.8,5.81,-15.11,-15.25,0,*45
1536724947.38,1706,16.75,74774.0,5.81,-15.35,-15.49,0,*4A
1536724948.61,1707,16.75,74774.8,5.83,-15.21,-15.35,0,*47
1536724949.86,1708,16.75,74774.8,5.81,-15.25,-15.39,0,*42
1536724951.12,1709,16.75,74772.0,5.81,-15.21,-15.39,0,*47
1536724952.33,1710,16.75,74778.5,5.81,-15.11,-15.25,0,*41
1536724953.55,1711,16.75,74770.0,5.81,-15.11,-15.25,0,*40
1536724954.79,1712,16.75,74776.3,5.81,-15.35,-15.49,0,*4F
1536724956.06,1713,16.75,74776.8,5.81,-14.83,-14.97,0,*40
1536724957.3,1714,16.75,74774.0,5.79,-14.83,-14.93,0,*44
1536724958.54,1715,16.75,74778.0,5.83,-15.21,-15.43,0,*45
1536724959.74,1716,16.75,74772.8,5.83,-15.29,-15.49,0,*44
1536724960.96,1717,16.75,74772.8,5.83,-15.15,-15.43,0,*40
1536724962.18,1718,16.75,74778.8,5.81,-15.11,-15.25,0,*49
1536724963.4,1719,16.75,74774.0,5.81,-15.07,-15.25,0,*4F
1536724964.61,1720,16.75,74772.8,5.83,-14.89,-15.01,0,*46
1536724965.83,1721,16.75,74776.5,5.83,-15.15,-15.21,0,*41
1536724967.03,1722,16.75,74774.5,5.83,-15.15,-15.29,0,*4A
1536724968.25,1723,16.75,74776.0,5.83,-15.29,-15.43,0,*48
1536724969.47,1724,16.75,74776.0,5.83,-15.21,-15.49,0,*4D
1536724970.7,1725,16.75,74778.5,5.83,-15.21,-15.35,0,*47
1536724971.93,1726,16.75,74778.5,5.83,-15.43,-15.49,0,*4B
1536724973.15,1727,16.75,74774.8,5.83,-15.35,-15.63,0,*43
1536724974.39,1728,16.75,74772.0,5.83,-15.43,-15.57,0,*4A
1536724975.57,1729,16.75,74772.0,5.83,-15.49,-15.67,0,*42
1536724976.79,1730,16.75,74776.5,5.83,-15.49,-15.81,0,*42
1536724978.04,1731,16.75,74774.0,5.83,-15.35,-15.35,0,*47
1536724979.28,1732,16.75,74772.5,5.83,-15.35,-15.57,0,*40
1536724980.52,1733,16.75,74772.8,5.83,-15.43,-15.57,0,*40
1536724981.76,1734,16.75,74784.8,5.81,-15.53,-15.81,0,*4F
1536724982.98,1735,16.75,74780.5,5.81,-15.49,-15.63,0,*49
1536724984.21,1736,16.75,74772.3,5.83,-15.21,-15.43,0,*44
1536724985.41,1737,16.75,74774.3,5.83,-15.15,-15.29,0,*4E
1536724986.63,1738,16.75,74774.0,5.83,-15.21,-15.29,0,*46
1536724987.89,1739,16.75,74772.0,5.81,-15.21,-15.39,0,*44
1536724989.15,1740,16.75,74772.8,5.81,-15.21,-15.39,0,*4A
1536724990.37,1741,16.75,74774.8,5.81,-15.25,-15.49,0,*48
1536724991.62,1742,16.75,74776.3,5.81,-15.39,-15.53,0,*4D
1536724992.83,1743,16.75,74776.0,5.81,-15.49,-15.63,0,*48
1536724994.02,1744,16.75,74778.0,5.79,-15.49,-15.71,0,*4B
1536724995.23,1745,16.75,74778.8,5.81,-15.53,-15.71,0,*46
1536724996.44,1746,16.75,74778.3,5.81,-15.49,-15.67,0,*49
1536724997.68,1747,16.75,74778.0,5.83,-15.21,-15.35,0,*43
1536724998.92,1748,16.75,74774.0,5.81,-15.25,-15.39,0,*46
1536725000.14,1749,16.75,74778.8,5.81,-15.25,-15.49,0,*40
1536725001.38,1750,16.75,74780.3,5.83,-15.21,-15.35,0,*45
1536725002.61,1751,16.75,74774.5,5.79,-15.21,-15.39,0,*4D
1536725003.83,1752,16.75,74780.3,5.81,-15.25,-15.49,0,*4A
1536725005.06,1753,16.75,74778.8,5.81,-15.25,-15.49,0,*4B
1536725006.3,1754,16.75,74778.0,5.81,-15.25,-15.39,0,*4B
1536725007.57,1755,16.75,74780.3,5.81,-15.35,-15.39,0,*4B
1536725008.79,1756,16.75,74782.8,5.79,-15.25,-15.39,0,*4E
1536725010.03,1757,16.75,74782.0,5.81,-15.21,-15.25,0,*41
1536725011.26,1758,16.75,74782.3,5.81,-15.35,-15.63,0,*49
1536725012.47,1759,16.75,74782.0,5.81,-15.49,-15.67,0,*47
1536725013.71,1760,16.75,74778.3,5.83,-15.21,-15.35,0,*46
1536725014.97,1761,16.75,74778.0,5.81,-15.35,-15.39,0,*4C
1536725016.18,1762,16.75,74782.0,5.81,-15.49,-15.67,0,*4F
1536725017.37,1763,16.75,74780.5,5.79,-15.07,-15.25,0,*45
1536725018.61,1764,16.75,74776.8,5.79,-14.75,-14.83,0,*4B
1536725019.81,1765,16.75,74778.8,5.83,-15.07,-15.29,0,*4A
1536725021.02,1766,16.75,74778.0,5.83,-14.93,-15.15,0,*4A
1536725022.22,1767,16.75,74778.0,5.83,-15.15,-15.29,0,*4B
1536725023.49,1768,16.75,74778.5,5.81,-15.35,-15.39,0,*45
1536725024.73,1769,16.75,74778.8,5.83,-15.43,-15.57,0,*4F
1536725025.95,1770,16.75,74778.8,5.83,-15.21,-15.49,0,*4C
1536725027.17,1771,16.75,74778.8,5.81,-15.25,-15.49,0,*4B
1536725028.4,1772,16.75,74774.5,5.81,-14.97,-15.11,0,*4D
1536725029.61,1773,16.75,74774.3,5.83,-15.01,-15.15,0,*44
1536725030.83,1774,16.75,74772.8,5.83,-15.15,-15.35,0,*44
1536725032.04,1775,16.75,74774.0,5.83,-14.93,-15.07,0,*4B
1536725033.24,1776,16.75,74772.8,5.83,-15.15,-15.29,0,*4B
1536725034.46,1777,16.75,74776.3,5.83,-15.07,-15.21,0,*41
1536725035.7,1778,16.75,74772.5,5.81,-15.21,-15.49,0,*46
1536725036.92,1779,16.75,74772.5,5.83,-15.39,-15.53,0,*47
1536725038.12,1780,16.75,74776.3,5.83,-15.29,-15.29,0,*4D
1536725039.32,1781,16.75,74774.3,5.83,-15.07,-15.29,0,*40
1536725040.53,1782,16.75,74774.8,5.83,-15.01,-15.07,0,*49
1536725041.77,1783,16.75,74772.5,5.81,-14.83,-15.07,0,*41
1536725042.98,1784,16.75,74772.3,5.83,-15.07,-15.21,0,*4D
1536725044.19,1785,16.75,74774.3,5.83,-14.93,-15.15,0,*47
1536725045.41,1786,16.75,74774.0,5.83,-15.07,-15.21,0,*4F
1536725046.64,1787,16.75,74772.3,5.83,-15.01,-15.21,0,*48
1536725047.85,1788,16.75,74776.0,5.83,-14.93,-15.07,0,*49
1536725049.07,1789,16.75,74778.3,5.83,-15.15,-15.21,0,*43
1536725050.29,1790,16.75,74778.8,5.83,-15.15,-15.35,0,*4E
1536725051.5,1791,16.75,74772.8,5.83,-15.07,-15.21,0,*49
1536725052.71,1792,16.75,74778.0,5.83,-15.07,-15.21,0,*4A
1536725053.93,1793,16.75,74776.3,5.83,-15.21,-15.29,0,*47
1536725055.15,1794,16.75,74774.3,5.83,-15.35,-15.49,0,*43
1536725056.38,1795,16.75,74778.3,5.83,-15.29,-15.43,0,*45
1536725057.59,1796,16.75,74776.5,5.83,-15.07,-15.21,0,*4E
1536725058.79,1797,16.75,74770.8,5.83,-15.07,-15.29,0,*47
1536725060.01,1798,16.75,74774.3,5.83,-15.29,-15.35,0,*49
1536725061.23,1799,16.75,74774.0,5.85,-15.01,-15.15,0,*46
1536725062.47,1800,16.75,74778.8,5.85,-15.01,-15.15,0,*49
1536725063.72,1801,16.75,74772.8,5.85,-14.79,-14.93,0,*49
1536725064.96,1802,16.75,74776.5,5.85,-14.89,-15.01,0,*4F
1536725066.19,1803,16.75,74772.3,5.83,-15.01,-15.35,0,*4E
1536725067.42,1804,16.75,74774.8,5.85,-15.01,-15.15,0,*4D
1536725068.65,1805,16.75,74772.3,5.89,-15.29,-15.53,0,*48
1536725069.89,1806,16.75,74776.5,5.83,-15.35,-15.57,0,*48
1536725071.13,1807,16.75,74778.8,5.85,-15.43,-15.63,0,*49
1536725072.38,1808,16.75,74776.0,5.89,-15.39,-15.63,0,*47
1536725073.56,1809,16.75,74774.3,5.83,-15.49,-15.67,0,*4F
1536725074.83,1810,16.75,74774.0,5.85,-15.43,-15.57,0,*48
1536725076.03,1811,16.75,74772.5,5.85,-15.49,-15.67,0,*40
1536725077.25,1812,16.75,74772.3,5.83,-15.43,-15.63,0,*4B
1536725078.47,1813,16.75,74778.3,5.83,-15.29,-15.43,0,*44
1536725079.69,1814,16.75,74776.0,5.83,-15.29,-15.43,0,*43
1536725080.94,1815,16.75,74778.3,5.83,-15.43,-15.57,0,*4B
1536725082.18,1816,16.75,74778.0,5.83,-15.43,-15.57,0,*48
1536725083.4,1817,16.75,74778.0,5.83,-15.29,-15.43,0,*40
1536725084.67,1818,16.75,74780.3,5.85,-15.43,-15.57,0,*40
1536725085.86,1819,16.75,74778.8,5.83,-15.49,-15.63,0,*4A
1536725087.09,1820,16.75,74780.0,5.85,-15.43,-15.63,0,*4C
1536725088.31,1821,16.75,74778.5,5.83,-15.21,-15.49,0,*47
1536725089.55,1822,16.75,74780.5,5.81,-15.39,-15.53,0,*44
1536725090.77,1823,16.75,74784.3,5.83,-15.21,-15.49,0,*45
1536725091.99,1824,16.75,74780.3,5.83,-15.35,-15.49,0,*47
1536725093.21,1825,16.75,74778.5,5.81,-15.11,-15.25,0,*48
1536725094.44,1826,16.75,74782.5,5.83,-15.21,-15.35,0,*4B
1536725095.66,1827,16.75,74778.3,5.83,-15.29,-15.35,0,*42
1536725096.9,1828,16.75,74780.5,5.83,-15.35,-15.57,0,*44
1536725098.15,1829,16.75,74780.5,5.83,-15.35,-15.57,0,*45
1536725099.38,1830,16.75,74780.0,5.83,-15.01,-15.21,0,*4B
1536725100.6,1831,16.75,74780.0,5.83,-15.15,-15.35,0,*4A
1536725101.82,1832,16.75,74782.3,5.83,-15.29,-15.57,0,*42
1536725103.01,1833,16.75,74776.8,5.83,-15.29,-15.63,0,*44
1536725104.25,1834,16.75,74778.3,5.81,-15.21,-15.49,0,*41
1536725105.47,1835,16.75,74772.3,5.83,-15.15,-15.43,0,*4F
1536725106.7,1836,16.75,74778.8,5.83,-15.01,-15.35,0,*48
1536725107.95,1837,16.75,74776.5,5.83,-15.35,-15.57,0,*4A
1536725109.15,1838,16.75,74774.8,5.85,-15.49,-15.67,0,*4B
1536725110.37,1839,16.75,74778.0,5.83,-15.57,-15.75,0,*40
1536725111.59,1840,16.75,74772.5,5.83,-15.49,-15.81,0,*4A
1536725112.81,1841,16.75,74768.5,5.83,-15.49,-15.81,0,*4B
1536725114.0,1842,16.75,74766.3,5.83,-15.49,-15.75,0,*43
1536725115.25,1843,16.75,74770.0,5.83,-15.57,-15.81,0,*46
1536725116.49,1844,16.75,74768.3,5.81,-15.53,-15.85,0,*43
1536725117.73,1845,16.75,74768.8,5.81,-15.71,-15.85,0,*42
1536725118.94,1846,16.75,74774.8,5.81,-15.71,-15.95,0,*40
1536725120.21,1847,16.75,74774.3,5.81,-15.85,-16.09,0,*4C
1536725121.44,1848,16.75,74774.5,5.81,-15.81,-15.99,0,*4D
1536725122.65,1849,16.75,74768.0,5.81,-15.67,-15.95,0,*48
1536725123.87,1850,16.75,74768.8,5.79,-15.71,-15.85,0,*41
1536725125.06,1851,16.75,74766.0,5.79,-15.63,-15.71,0,*48
1536725126.28,1852,16.75,74768.8,5.79,-15.71,-15.85,0,*43
1536725127.49,1853,16.75,74770.3,5.79,-15.63,-15.85,0,*41
1536725128.69,1854,16.75,74770.5,5.79,-15.53,-15.71,0,*4E
1536725129.9,1855,16.75,74770.8,5.79,-15.71,-15.85,0,*44
1536725131.12,1856,16.75,74768.5,5.79,-15.71,-15.85,0,*47
1536725132.33,1857,16.75,74770.3,5.79,-15.67,-15.85,0,*41
1536725133.55,1858,16.75,74766.8,5.79,-15.53,-15.85,0,*49
1536725134.77,1859,16.75,74766.8,5.79,-15.63,-15.81,0,*4F
1536725135.98,1860,16.75,74766.3,5.79,-15.67,-15.85,0,*45
1536725137.2,1861,16.75,74770.5,5.79,-15.71,-15.81,0,*47
1536725138.42,1862,16.75,74778.5,5.79,-15.67,-15.81,0,*43
1536725139.63,1863,16.75,74778.0,5.79,-15.67,-15.85,0,*46
1536725140.84,1864,16.75,74774.5,5.81,-15.53,-15.67,0,*4D
1536725142.08,1865,16.75,74776.8,5.81,-15.53,-15.81,0,*44
1536725143.32,1866,16.75,74772.5,5.77,-15.75,-15.89,0,*42
1536725144.56,1867,16.75,74772.0,5.77,-15.71,-15.89,0,*47
1536725145.8,1868,16.75,74774.3,5.77,-15.75,-15.89,0,*4C
1536725147.04,1869,16.75,74770.8,5.77,-15.75,-15.89,0,*4D
1536725148.28,1870,16.75,74772.5,5.77,-15.71,-15.85,0,*4D
1536725149.5,1871,16.75,74772.5,5.75,-15.81,-15.95,0,*40
1536725150.69,1872,16.75,74772.0,5.75,-15.75,-15.95,0,*48
1536725151.91,1873,16.75,74782.8,5.75,-15.75,-15.89,0,*44
1536725153.13,1874,16.75,74780.5,5.75,-15.75,-15.89,0,*43
1536725154.35,1875,16.75,74772.8,5.77,-15.15,-15.25,0,*40
1536725155.59,1876,16.75,74772.3,5.77,-15.25,-15.39,0,*4D
1536725156.86,1877,16.75,74770.0,5.77,-15.43,-15.57,0,*44
1536725158.07,1878,16.75,74770.0,5.77,-15.53,-15.75,0,*4A
1536725159.31,1879,16.75,74768.8,5.77,-15.57,-15.71,0,*4B
1536725160.55,1880,16.75,74768.0,5.77,-15.57,-15.75,0,*49
1536725161.77,1881,16.75,74772.5,5.77,-15.25,-15.53,0,*49
1536725163.03,1882,16.75,74774.3,5.77,-15.39,-15.57,0,*43
1536725164.24,1883,16.75,74772.8,5.77,-15.53,-15.67,0,*4D
1536725165.5,1884,16.75,74772.0,5.77,-15.43,-15.57,0,*48
1536725166.7,1885,16.75,74770.0,5.79,-15.49,-15.53,0,*49
1536725167.91,1886,16.75,74772.0,5.77,-15.53,-15.75,0,*4B
1536725169.15,1887,16.75,74770.8,5.75,-15.57,-15.57,0,*4C
1536725170.39,1888,16.75,74770.5,5.75,-15.57,-15.81,0,*48
1536725171.63,1889,16.75,74774.3,5.77,-15.57,-15.75,0,*40
1536725172.84,1890,16.75,74774.8,5.77,-15.53,-15.67,0,*4F
1536725174.08,1891,16.75,74776.5,5.75,-15.57,-15.81,0,*40
1536725175.32,1892,16.75,74770.5,5.77,-15.39,-15.53,0,*46
1536725176.57,1893,16.75,74768.5,5.75,-15.57,-15.81,0,*42
1536725177.78,1894,16.75,74768.5,5.75,-15.71,-15.89,0,*49
1536725178.97,1895,16.75,74770.5,5.75,-15.71,-15.95,0,*45
1536725180.21,1896,16.75,74770.3,5.77,-15.67,-15.85,0,*42
1536725181.42,1897,16.75,74768.5,5.75,-15.71,-15.89,0,*4A
1536725182.64,1898,16.75,74774.8,5.75,-15.15,-15.21,0,*45
1536725183.87,1899,16.75,74774.5,5.77,-15.01,-15.15,0,*44
1536725185.08,1900,16.75,74776.5,5.75,-15.57,-15.71,0,*46
1536725186.35,1901,16.75,74776.5,5.77,-15.43,-15.57,0,*44
1536725187.56,1902,16.75,74776.3,5.75,-15.57,-15.71,0,*44
1536725188.78,1903,16.75,74772.0,5.75,-15.71,-15.81,0,*4E
1536725190.02,1904,16.75,74774.8,5.77,-15.57,-15.71,0,*40
1536725191.23,1905,16.75,74770.3,5.75,-15.57,-15.71,0,*43
1536725192.45,1906,16.75,74772.5,5.79,-15.39,-15.53,0,*44
1536725193.69,1907,16.75,74770.8,5.77,-15.71,-15.89,0,*40
1536725194.91,1908,16.75,74768.3,5.75,-15.63,-15.81,0,*46
1536725196.14,1909,16.75,74774.8,5.77,-15.57,-15.75,0,*49
1536725197.36,1910,16.75,74774.8,5.75,-15.57,-15.71,0,*47
1536725198.57,1911,16.75,74772.5,5.77,-15.67,-15.75,0,*43
1536725199.81,1912,16.75,74778.0,5.77,-15.67,-15.85,0,*4F
1536725201.03,1913,16.75,74780.8,5.75,-15.71,-15.81,0,*4F
1536725202.25,1914,16.75,74776.5,5.75,-15.71,-15.81,0,*48
1536725203.44,1915,16.75,74772.0,5.75,-15.63,-15.71,0,*45
1536725204.66,1916,16.75,74780.3,5.75,-15.71,-15.81,0,*4A
1536725205.85,1917,16.75,74776.3,5.75,-15.63,-15.75,0,*43
1536725207.04,1918,16.75,74778.5,5.75,-15.63,-15.75,0,*4C
1536725208.23,1919,16.75,74778.5,5.75,-15.63,-15.75,0,*4D
1536725209.42,1920,16.75,74778.0,5.75,-15.49,-15.63,0,*48
1536725210.69,1921,16.75,74780.3,5.77,-15.43,-15.57,0,*46
1536725211.9,1922,16.75,74778.3,5.75,-15.49,-15.57,0,*4D
1536725213.14,1923,16.75,74784.8,5.77,-15.29,-15.39,0,*40
1536725214.36,1924,16.75,74784.5,5.75,-15.29,-15.35,0,*49
1536725215.58,1925,16.75,74780.3,5.75,-15.29,-15.43,0,*49
1536725216.79,1926,16.75,74778.5,5.77,-15.53,-15.67,0,*43
1536725218.0,1927,16.75,74772.0,5.77,-15.53,-15.67,0,*42
1536725219.24,1928,16.75,74776.0,5.77,-15.43,-15.71,0,*4B
1536725220.46,1929,16.75,74774.5,5.77,-15.53,-15.71,0,*4B
1536725221.7,1930,16.75,74774.0,5.75,-15.57,-15.81,0,*4A
1536725222.92,1931,16.75,74770.3,5.75,-15.63,-15.81,0,*4C
1536725224.16,1932,16.75,74772.0,5.77,-15.43,-15.71,0,*40
1536725225.37,1933,16.75,74778.5,5.75,-15.43,-15.71,0,*43
1536725226.56,1934,16.75,74780.3,5.79,-15.49,-15.67,0,*45
1536725227.74,1935,16.75,74778.8,5.75,-15.49,-15.63,0,*4C
1536725228.96,1936,16.75,74772.8,5.75,-15.43,-15.71,0,*46
1536725230.2,1937,16.75,74768.5,5.77,-15.43,-15.71,0,*45
1536725231.42,1938,16.75,74772.0,5.75,-15.43,-15.71,0,*48
1536725232.61,1939,16.75,74776.0,5.75,-15.49,-15.71,0,*43
1536725233.82,1940,16.75,74776.3,5.77,-15.53,-15.67,0,*43
1536725235.04,1941,16.75,74776.5,5.75,-15.35,-15.49,0,*4C
1536725236.27,1942,16.75,74772.5,5.75,-15.21,-15.43,0,*40
1536725237.49,1943,16.75,74774.0,5.77,-15.53,-15.71,0,*47
1536725238.71,1944,16.75,74772.5,5.79,-15.35,-15.53,0,*4E
1536725239.92,1945,16.75,74772.8,5.79,-15.39,-15.63,0,*40
1536725241.14,1946,16.75,74774.8,5.77,-15.53,-15.75,0,*46
1536725242.38,1947,16.75,74776.3,5.75,-15.57,-15.81,0,*4A
1536725243.62,1948,16.75,74776.0,5.75,-15.35,-15.43,0,*4F
1536725244.83,1949,16.75,74782.3,5.77,-15.53,-15.67,0,*4A
1536725246.07,1950,16.75,74776.5,5.75,-15.35,-15.57,0,*43
1536725247.31,1951,16.75,74770.3,5.75,-15.35,-15.57,0,*42
1536725248.56,1952,16.75,74770.8,5.77,-15.29,-15.43,0,*4B
1536725249.79,1953,16.75,74770.3,5.77,-14.97,-15.11,0,*49
1536725251.02,1954,16.75,74774.3,5.79,-14.93,-15.21,0,*47
1536725252.25,1955,16.75,74772.0,5.77,-15.43,-15.67,0,*46
1536725253.47,1956,16.75,74768.0,5.77,-15.53,-15.75,0,*47
1536725254.66,1957,16.75,74776.5,5.75,-15.49,-15.75,0,*4F
1536725255.88,1958,16.75,74778.3,5.77,-15.11,-15.25,0,*4A
1536725257.09,1959,16.75,74772.5,5.77,-15.11,-15.29,0,*47
1536725258.34,1960,16.75,74768.5,5.77,-15.15,-15.39,0,*48
1536725259.56,1961,16.75,74772.5,5.79,-15.25,-15.39,0,*44
1536725260.78,1962,16.75,74772.0,5.77,-15.29,-15.53,0,*49
1536725262.04,1963,16.75,74774.5,5.77,-15.39,-15.57,0,*4D
1536725263.28,1964,16.75,74776.8,5.77,-15.43,-15.67,0,*44
1536725264.51,1965,16.75,74778.8,5.77,-15.43,-15.67,0,*45
1536725265.77,1966,16.75,74776.8,5.77,-15.43,-15.57,0,*45
1536725267.04,1967,16.75,74776.0,5.77,-15.39,-15.43,0,*4C
1536725268.28,1968,16.75,74782.8,5.77,-15.29,-15.43,0,*42
1536725269.54,1969,16.75,74776.8,5.81,-15.21,-15.39,0,*4F
1536725270.76,1970,16.75,74782.8,5.77,-15.11,-15.25,0,*40
1536725271.98,1971,16.75,74780.8,5.77,-15.15,-15.25,0,*45
1536725273.24,1972,16.75,74776.8,5.77,-15.39,-15.43,0,*48
1536725274.49,1973,16.75,74778.8,5.77,-15.39,-15.53,0,*48
1536725275.73,1974,16.75,74778.0,5.79,-15.35,-15.39,0,*41
1536725276.95,1975,16.75,74778.8,5.79,-15.35,-15.49,0,*47
1536725278.17,1976,16.75,74776.3,5.79,-15.39,-15.49,0,*48
1536725279.39,1977,16.75,74782.0,5.79,-15.35,-15.53,0,*4E
1536725280.66,1978,16.75,74780.3,5.77,-15.39,-15.57,0,*47
1536725281.89,1979,16.75,74784.3,5.77,-15.43,-15.67,0,*48
1536725283.12,1980,16.75,74782.3,5.77,-15.39,-15.67,0,*43
1536725284.36,1981,16.75,74778.3,5.75,-15.35,-15.57,0,*4F
1536725285.58,1982,16.75,74776.8,5.79,-15.25,-15.39,0,*49
1536725286.83,1983,16.75,74776.3,5.79,-15.35,-15.39,0,*49
1536725288.02,1984,16.75,74778.0,5.79,-15.49,-15.63,0,*4A
1536725289.2,1985,16.75,74782.5,5.79,-15.49,-15.63,0,*4B
1536725290.43,1986,16.75,74782.0,5.79,-15.39,-15.49,0,*47
1536725291.64,1987,16.75,74778.3,5.77,-15.53,-15.71,0,*4F
1536725292.86,1988,16.75,74778.3,5.79,-15.35,-15.49,0,*45
1536725294.1,1989,16.75,74782.0,5.77,-15.29,-15.43,0,*4D
1536725295.37,1990,16.75,74778.0,5.77,-15.39,-15.57,0,*41
1536725296.59,1991,16.75,74778.8,5.77,-15.25,-15.29,0,*44
1536725297.83,1992,16.75,74780.5,5.81,-15.39,-15.63,0,*4D
1536725299.05,1993,16.75,74782.8,5.79,-15.39,-15.53,0,*48
1536725300.26,1994,16.75,74780.8,5.77,-15.53,-15.67,0,*4A
1536725301.5,1995,16.75,74782.8,5.77,-15.43,-15.53,0,*4D
1536725302.72,1996,16.75,74776.5,5.77,-15.25,-15.29,0,*43
1536725303.94,1997,16.75,74782.8,5.77,-15.29,-15.53,0,*43
1536725305.18,1998,16.75,74784.0,5.77,-15.39,-15.53,0,*4D
1536725306.43,1999,16.75,74782.3,5.77,-15.25,-15.39,0,*4D
1536725307.64,2000,16.75,74780.3,5.79,-15.39,-15.63,0,*4B